Wind_Speed
15 14 13 13 12 11 10 9 8 8 8 8 7 7 7 7 8 8 9 8 9 10 10 10 10 9 9 9 9 9 9 9 9 10 12 13 13 13 13 13 11 10 10 11 13 14 14 14 14 13 13 13 13 14 14 14 13 13 13 13 12 11 10 10 9 8 7 7 7
15 14 13 12 11 10 9 8 8 8 8 9 8 8 8 8 8 9 9 10 10 11 10 10 9 9 9 10 10 10 10 9 9 10 11 13 13 14 14 15 14 13 13 13 14 14 15 15 15 14 13 13 13 13 13 13 12 12 12 12 12 11 11 10 9 8 7 7 6
15 15 14 12 11 10 9 9 10 10 10 11 11 10 9 9 9 9 9 10 10 10 10 9 9 9 9 10 10 11 10 10 10 11 12 13 14 14 15 15 16 16 16 16 15 15 16 16 15 15 14 14 14 13 13 12 12 11 11 11 11 11 10 10 9 8 8 8 7
16 15 14 12 11 10 9 10 10 11 11 12 12 12 11 10 10 9 9 9 9 9 9 9 9 9 10 11 11 11 11 11 11 12 12 13 14 14 15 15 17 17 17 17 17 17 17 17 16 16 15 15 15 14 13 12 12 12 12 12 11 11 11 10 10 9 9 9 8
14 14 13 12 11 10 10 10 11 12 13 14 13 12 12 11 10 10 9 9 8 8 9 9 10 10 11 11 11 11 11 11 12 13 13 14 14 14 14 15 16 17 17 18 18 18 18 18 18 17 16 16 15 14 13 13 13 12 12 12 12 12 12 11 11 10 10 9 9
13 12 12 12 12 11 11 11 13 14 14 13 13 12 11 11 11 11 10 10 9 9 9 9 10 11 12 12 12 12 12 13 13 14 14 15 15 15 15 15 16 16 17 17 18 19 19 19 19 18 17 16 16 15 15 14 13 13 13 13 12 12 12 12 12 11 10 10 9
14 13 13 13 13 13 13 13 14 14 14 14 12 12 12 12 12 12 11 11 10 10 10 10 11 12 13 13 13 13 13 14 15 15 16 16 16 16 17 17 17 17 18 18 19 19 19 19 19 18 17 16 16 15 15 14 13 12 13 13 12 12 12 12 12 11 10 10 9
16 15 15 14 14 14 14 14 14 15 15 14 13 12 12 12 12 12 12 11 11 11 10 11 12 13 14 14 14 14 15 15 16 16 17 17 18 18 18 18 18 19 19 19 19 19 19 19 18 18 17 16 16 15 14 13 12 12 12 13 12 11 11 11 11 10 9 9 8
16 15 15 15 14 14 14 15 15 15 14 14 13 12 12 12 12 12 12 12 12 12 12 12 13 14 15 15 16 16 16 17 17 18 18 19 19 19 19 19 19 20 19 19 19 19 19 18 18 18 17 16 16 15 14 12 12 12 13 13 12 12 11 10 10 9 8 7 7
15 14 14 14 14 14 15 15 15 14 14 14 13 13 12 12 13 13 13 13 13 13 13 14 15 15 16 16 17 18 18 18 18 19 19 19 19 19 19 19 20 19 19 19 18 18 18 18 19 18 18 17 17 16 14 13 12 13 13 13 13 12 11 10 10 9 8 7 6
14 14 14 14 14 14 14 15 14 14 14 14 14 13 13 13 13 13 14 14 14 14 15 15 16 17 17 18 18 19 19 20 20 20 20 20 20 20 20 20 20 19 19 19 19 19 19 19 20 20 19 18 17 16 14 13 12 13 14 14 13 13 12 11 9 8 7 6 5
14 14 14 14 14 14 14 14 14 14 14 14 14 14 14 14 14 14 15 15 16 16 16 17 17 18 19 19 19 20 21 21 21 21 21 21 21 21 21 21 20 20 20 19 19 20 20 20 20 20 19 18 17 16 14 14 14 14 15 14 13 12 12 11 9 8 7 6 6
15 14 14 14 14 15 15 15 15 15 15 15 15 15 15 15 15 16 16 17 17 18 18 18 19 19 20 21 22 22 23 23 23 24 24 24 23 23 22 22 21 21 20 20 19 19 19 19 19 19 19 18 17 16 15 15 15 15 15 14 12 12 11 10 10 8 7 7 6
15 15 15 15 15 15 16 16 16 16 16 16 16 16 16 17 17 17 17 18 18 19 20 20 20 21 22 23 23 23 24 24 25 25 25 25 24 23 23 22 22 21 21 20 19 19 19 19 18 18 18 17 16 16 15 15 15 15 15 13 13 12 11 10 9 8 7 6 6
16 16 15 15 16 16 16 17 17 17 17 17 17 17 18 18 18 18 18 19 20 21 22 22 22 23 23 23 23 23 23 24 24 25 25 24 23 22 22 22 21 21 21 20 20 19 19 19 18 18 17 17 17 16 16 15 15 14 14 13 12 12 11 10 9 8 7 6 6
16 16 15 15 16 16 16 17 17 17 17 17 18 18 19 19 19 19 19 19 20 21 22 23 23 23 23 22 22 22 22 22 23 23 23 22 22 22 22 21 21 21 20 20 20 19 19 18 17 17 16 16 16 15 15 14 14 13 13 12 11 11 10 9 8 8 7 7 6
16 15 15 16 16 16 16 17 17 17 17 18 18 19 19 20 19 19 19 19 20 21 22 22 23 23 22 21 21 20 20 21 22 22 22 22 22 22 22 22 21 21 20 20 20 20 19 18 17 16 16 15 15 15 14 14 13 13 12 11 11 10 10 9 8 8 8 7 8
16 16 16 16 16 17 17 17 17 17 18 18 19 20 20 20 20 20 19 19 20 21 22 22 22 22 22 21 21 20 20 21 22 23 23 23 23 22 22 22 22 21 21 21 21 20 19 18 18 17 16 15 15 14 14 13 13 13 12 12 11 11 10 10 9 9 8 8 8
16 16 16 17 17 17 18 18 18 18 18 19 19 20 21 21 21 21 20 19 20 21 21 21 22 22 22 22 22 22 23 24 25 25 24 24 23 23 22 22 22 22 21 21 21 20 20 19 18 17 16 15 15 14 14 14 14 13 13 13 13 12 11 11 10 10 9 9 9
17 17 17 17 18 18 19 19 19 19 20 20 21 21 22 22 22 22 21 21 21 21 21 21 22 23 23 23 23 23 24 25 26 26 25 24 24 23 23 22 22 22 21 21 20 20 19 19 18 17 17 16 16 15 15 15 14 14 14 14 13 13 12 11 11 10 10 10 9
17 17 17 18 19 19 20 20 20 21 21 21 21 22 22 22 22 22 23 23 23 23 23 23 23 23 23 23 22 22 23 24 25 25 25 24 23 23 22 22 22 22 21 21 20 20 19 19 18 18 17 17 16 16 15 15 15 14 14 14 13 13 12 12 11 11 10 10 10
18 18 18 18 19 20 20 21 21 21 22 22 22 22 22 22 22 22 23 24 24 25 25 24 24 23 23 23 22 22 22 23 24 24 24 23 22 22 21 21 22 22 21 21 20 20 20 20 19 18 18 17 17 16 15 15 15 14 14 14 13 13 13 12 11 11 11 10 9
18 18 19 19 20 20 21 21 22 22 22 22 22 22 22 22 22 22 23 23 24 25 25 25 24 23 23 23 23 23 23 23 23 24 24 23 23 22 22 21 22 22 21 20 20 20 20 19 19 19 18 17 16 16 15 14 14 13 13 13 13 13 13 13 12 12 11 10 9
18 18 19 19 20 21 22 22 23 23 23 23 23 22 22 22 21 22 22 23 24 24 25 25 24 24 23 23 24 24 24 24 23 23 23 23 22 22 21 21 21 21 21 20 19 19 19 19 18 18 18 17 16 15 14 14 13 13 13 13 13 13 13 13 12 12 11 10 9
18 19 19 20 21 22 23 23 23 23 23 23 23 23 23 22 22 21 22 22 23 23 24 24 24 24 23 23 23 23 24 23 23 22 21 20 19 18 18 18 19 19 19 19 19 19 19 18 18 17 16 15 15 14 14 14 13 13 13 12 12 12 11 11 11 11 10 10 9
18 19 19 20 21 22 23 23 23 23 23 23 23 23 23 22 22 22 23 23 23 23 23 23 23 23 23 22 22 21 21 21 21 20 19 18 17 16 16 16 16 17 18 18 18 18 18 18 17 16 15 15 14 14 14 14 14 14 13 12 12 11 10 10 9 9 9 9 9
19 19 19 19 20 21 22 22 22 22 22 21 22 22 23 23 23 23 23 23 22 22 22 21 21 21 21 21 20 20 19 18 17 17 17 16 16 17 17 17 16 16 16 17 17 17 17 17 16 16 15 14 14 14 14 14 14 14 13 12 11 10 9 9 8 8 8 8 8
19 19 19 20 20 19 20 20 20 20 20 21 21 21 21 22 22 22 22 22 21 20 20 19 19 19 20 20 19 18 17 17 17 16 17 17 17 17 17 17 17 17 16 16 16 16 16 15 15 15 15 14 14 13 13 12 12 12 11 11 10 10 9 8 8 7 7 7 7
18 19 19 20 19 19 18 19 19 19 19 19 19 19 20 20 20 20 20 20 19 19 18 17 17 17 18 18 18 17 17 17 17 17 17 17 17 17 17 17 17 17 17 16 16 16 15 15 15 14 14 13 12 11 10 10 10 10 10 10 9 9 8 8 7 7 7 6 6
19 19 19 19 19 18 17 17 17 17 17 17 18 19 19 19 19 20 20 20 19 18 17 17 17 17 17 16 16 16 16 16 15 15 15 16 16 17 17 17 16 16 16 16 16 16 15 15 14 14 14 13 12 11 10 10 10 10 10 10 9 9 8 8 7 7 6 6 6
19 19 19 18 17 16 16 16 16 16 16 17 18 19 20 20 20 19 19 20 19 19 19 18 18 18 17 17 17 17 17 16 16 16 16 16 17 17 17 16 16 16 16 16 16 16 15 14 14 13 13 13 13 12 11 11 11 11 10 9 9 8 7 7 7 6 6 6 6
18 18 18 17 16 15 14 14 15 15 16 17 18 19 19 19 18 18 18 18 18 18 18 19 19 19 18 18 18 18 19 19 20 19 18 17 16 16 16 16 16 16 15 15 15 15 14 13 13 12 12 12 12 12 12 11 11 10 10 9 8 8 7 6 6 6 6 6 5
16 16 16 16 15 14 14 14 15 16 16 17 18 18 18 18 18 17 17 17 17 17 18 18 18 18 18 18 19 19 20 21 20 19 17 15 15 15 15 15 16 15 15 14 14 14 13 12 11 11 11 11 11 11 10 10 9 9 8 8 8 7 7 6 6 5 5 5 4
15 16 15 15 15 14 14 14 15 16 17 17 17 17 17 17 17 17 17 17 17 17 18 18 18 18 18 18 18 19 19 18 18 16 15 14 13 14 14 15 16 15 14 14 13 13 12 11 10 10 10 10 10 9 9 8 8 7 7 7 7 7 7 6 5 5 5 4 4
15 15 15 14 14 14 14 14 15 16 16 17 17 17 17 17 16 16 16 17 17 18 18 18 18 18 18 18 18 18 18 17 16 15 14 14 14 15 16 17 16 15 13 13 13 12 11 10 10 9 9 9 9 8 8 8 7 7 7 6 6 6 6 6 5 5 5 4 4
14 15 14 14 13 13 14 14 15 15 16 16 16 16 16 16 16 16 16 16 17 18 18 18 18 18 18 18 17 17 17 16 16 16 15 16 17 18 18 17 16 14 13 12 12 12 11 10 10 9 9 8 7 7 6 6 6 6 6 6 6 6 6 6 5 5 5 5 5
14 14 14 14 14 13 13 14 14 15 15 15 15 15 15 15 15 14 15 16 16 17 17 18 18 18 18 18 17 17 16 16 16 16 16 17 18 18 18 16 14 13 12 11 11 11 11 10 10 9 8 7 6 6 5 5 5 5 6 6 6 6 5 5 5 5 5 6 5
13 13 14 14 14 14 14 14 15 15 15 15 14 14 14 14 13 13 13 14 15 16 16 17 17 18 18 18 18 18 17 16 16 16 16 17 17 17 16 14 13 12 12 12 12 11 11 10 10 9 8 7 6 5 5 5 5 5 5 5 5 5 5 4 5 5 5 5 5
13 14 14 14 14 14 14 14 14 14 14 13 13 13 13 13 13 13 13 14 14 15 16 16 16 17 17 17 17 17 17 17 16 16 16 16 16 15 15 14 14 13 13 12 12 11 11 10 10 9 8 7 6 5 5 5 5 5 5 5 5 4 4 4 4 4 5 6 6
14 14 14 14 14 14 14 14 13 13 13 13 13 13 13 14 14 14 14 15 15 15 15 15 15 15 16 16 17 17 17 16 16 16 16 15 15 15 15 14 14 14 13 12 11 10 10 9 9 9 8 7 6 5 5 5 5 5 5 5 5 4 4 4 4 4 5 6 6
14 14 14 14 14 14 14 13 13 12 13 13 13 13 14 14 14 14 15 15 15 15 15 15 14 15 15 16 16 16 16 16 16 15 15 15 15 14 14 13 13 13 12 11 10 10 9 9 9 9 8 8 7 6 5 5 5 5 6 6 5 4 4 4 4 4 4 5 6
Wind_Direction
198 195 193 192 190 187 184 183 181 180 183 187 185 187 193 200 202 203 202 202 206 212 219 223 221 216 212 210 210 210 211 215 220 220 216 210 206 201 195 192 193 197 200 197 195 195 195 195 192 188 184 182 176 168 162 157 154 155 156 156 152 151 151 150 149 150 154 158 163
196 194 191 189 184 182 182 179 179 180 183 189 189 192 195 195 199 202 204 204 206 208 211 212 211 206 201 200 200 199 199 201 207 211 210 204 196 190 186 183 187 193 197 195 194 193 193 194 195 191 183 180 174 165 158 154 151 150 149 148 147 147 145 141 139 140 143 145 149
193 192 190 187 183 180 178 178 182 184 186 188 188 190 193 197 198 197 196 196 197 197 196 192 190 187 185 186 188 188 188 189 193 199 201 199 192 185 179 177 180 184 187 189 189 189 188 189 192 189 182 176 171 164 156 153 150 146 141 138 138 138 136 132 132 133 134 132 134
192 190 189 189 186 182 178 179 182 182 183 186 190 194 198 198 193 189 188 188 186 183 180 179 176 174 173 175 178 179 180 180 183 187 191 192 190 184 177 172 171 173 177 180 182 183 183 183 182 179 172 166 161 155 150 147 145 140 133 129 128 127 125 123 122 122 121 120 119
188 187 186 187 183 178 176 177 177 180 184 188 191 193 194 191 186 183 182 182 177 175 176 176 172 168 167 169 170 172 172 173 175 178 181 184 186 184 179 171 166 165 168 172 174 175 175 175 171 165 158 153 148 143 139 138 136 131 126 122 120 118 116 114 113 112 112 111 111
174 172 172 174 172 170 171 176 178 180 183 184 186 185 182 181 179 178 177 176 176 176 175 174 171 166 163 162 164 166 167 168 169 170 171 172 175 176 174 169 162 158 158 160 163 164 164 163 156 150 145 141 136 132 131 131 130 127 122 118 116 115 114 112 113 113 112 111 111
158 158 161 165 169 172 173 174 177 177 177 177 175 174 174 174 173 172 173 176 176 174 172 173 170 164 159 157 157 160 163 165 164 163 162 161 162 164 164 162 157 151 148 148 149 150 151 150 144 138 135 133 128 126 128 130 129 125 121 117 116 116 117 116 118 118 117 116 116
153 155 158 164 171 174 173 172 172 171 170 168 168 168 168 168 166 167 170 173 170 169 171 172 168 163 159 154 153 155 159 160 158 156 154 153 153 153 154 154 151 146 143 142 141 142 143 144 140 135 131 129 125 123 124 127 125 122 118 114 113 113 114 114 115 114 114 113 112
149 153 157 162 168 170 169 167 166 163 160 158 159 161 162 163 161 163 163 162 162 164 167 167 165 162 158 154 151 151 153 154 151 149 148 147 146 145 145 145 144 141 140 140 139 140 140 140 137 134 131 126 121 118 118 120 120 117 114 110 109 108 107 106 104 103 100 97 93
144 149 152 155 158 161 162 160 157 155 154 153 154 157 158 159 158 158 157 156 156 157 158 158 158 157 154 150 147 146 147 147 146 144 143 143 142 140 139 138 137 135 134 134 134 134 133 131 128 127 124 121 118 116 115 115 115 113 111 109 108 107 105 101 98 95 91 86 82
140 143 145 145 147 152 154 151 148 147 148 148 150 152 154 155 153 152 151 151 149 147 147 150 150 148 146 143 140 139 140 140 141 140 139 138 137 136 134 133 132 130 128 127 126 125 123 121 119 118 116 115 114 114 114 114 112 110 108 107 107 107 104 101 97 93 89 85 83
134 137 138 138 141 144 145 142 139 138 139 140 142 144 145 145 145 145 145 145 142 140 139 141 141 139 137 135 133 132 132 132 133 133 132 130 130 130 129 127 126 124 122 121 120 118 115 113 113 112 111 110 109 110 110 111 109 108 108 108 107 105 102 98 95 92 91 91 93
126 128 129 131 134 137 136 133 130 129 130 131 134 135 136 136 137 138 138 138 137 135 133 133 133 131 130 128 127 126 124 124 125 124 123 122 121 121 120 119 118 117 115 113 112 110 109 108 108 108 107 105 105 106 108 109 109 110 110 110 107 103 98 95 92 91 93 95 99
117 119 120 123 126 127 126 123 122 122 123 124 127 129 129 129 130 132 133 132 132 130 129 127 126 124 123 122 121 120 118 118 118 117 116 114 114 113 112 111 111 109 107 105 104 103 103 103 103 104 105 106 107 109 111 111 111 111 111 108 105 101 98 95 93 94 94 97 99
108 110 113 117 118 119 118 116 116 117 118 119 121 124 125 125 126 127 128 128 127 126 125 122 119 118 117 117 116 114 113 113 112 111 110 108 107 107 106 105 105 104 104 103 103 102 102 102 103 104 106 109 110 111 111 110 110 109 108 106 103 101 100 98 97 96 97 97 98
100 103 107 110 112 112 112 112 113 114 115 116 119 122 122 121 122 122 122 122 122 121 120 117 115 113 112 112 111 110 109 108 108 107 106 104 104 104 103 103 103 104 105 106 106 105 104 105 106 108 109 110 110 109 108 107 106 105 103 102 102 101 101 100 100 98 99 99 95
95 98 101 105 106 108 109 109 111 113 114 116 118 120 120 119 118 118 117 117 118 117 115 114 112 111 110 109 108 107 106 107 106 105 104 104 105 105 105 105 106 107 108 108 107 107 107 108 110 111 111 110 108 106 104 103 102 101 100 99 99 100 101 101 100 99 96 94 89
92 94 98 100 102 104 105 107 109 111 113 115 117 118 118 118 117 115 114 113 113 113 112 111 110 110 110 109 109 108 108 108 107 106 106 106 106 106 106 106 106 107 107 107 106 106 107 108 109 110 109 107 104 102 100 99 98 98 98 99 100 100 101 101 100 97 91 86 82
91 93 95 97 99 101 103 105 107 109 111 113 114 116 116 116 115 114 112 110 110 110 110 110 110 110 110 110 110 110 110 110 109 108 108 107 107 106 105 104 104 104 104 103 103 103 103 104 103 103 102 100 98 97 95 95 95 96 97 99 99 99 98 98 96 93 89 83 79
89 90 93 95 98 100 102 104 106 108 110 112 112 113 114 115 115 114 112 111 110 110 110 110 110 110 110 110 110 109 109 109 108 108 107 106 105 103 103 103 102 101 100 100 99 99 99 98 96 95 94 93 93 93 92 93 93 95 96 96 96 95 95 93 92 90 88 84 80
88 89 91 95 98 100 102 104 106 108 109 110 111 111 113 114 114 113 112 113 114 113 112 111 111 111 110 110 109 107 107 106 106 105 103 102 101 100 100 101 100 99 98 97 96 96 95 94 93 92 92 91 91 91 92 92 92 92 92 91 91 92 91 90 88 87 86 84 80
87 89 91 94 97 99 101 103 105 107 108 109 110 111 113 114 114 114 114 116 116 115 114 112 112 112 111 111 109 107 106 105 104 103 102 100 98 97 97 96 95 94 94 93 94 94 93 93 93 92 92 92 91 91 91 91 90 89 89 88 88 87 86 85 84 83 83 83 80
88 89 91 93 95 97 99 101 103 105 106 107 109 111 112 114 114 115 116 116 116 115 114 113 112 111 112 111 111 109 107 106 104 103 101 100 97 95 93 92 90 89 89 90 91 92 92 92 92 93 93 92 91 91 90 90 90 89 88 86 84 82 81 80 80 80 80 79 76
88 89 90 92 94 95 97 99 101 102 104 106 107 109 111 113 114 115 116 115 114 113 112 112 111 110 110 110 110 109 108 107 105 103 101 98 95 93 90 89 87 86 86 87 87 89 90 91 92 92 92 92 92 91 91 90 90 89 86 84 81 79 77 76 76 77 77 75 71
88 89 90 91 93 95 96 97 99 101 103 106 109 110 111 112 114 115 115 114 112 112 112 111 111 110 108 107 107 107 106 105 104 103 101 99 96 94 91 88 86 85 84 84 84 85 87 90 92 93 93 93 93 93 92 91 90 87 85 82 80 79 77 74 72 71 71 70 68
89 89 90 91 93 95 96 97 100 103 105 108 110 111 111 113 114 114 113 112 112 112 113 112 112 111 109 108 107 106 105 104 103 102 101 100 98 96 93 90 88 87 85 84 83 83 84 87 92 95 96 96 95 94 93 92 90 88 84 81 79 77 75 73 69 65 63 62 61
90 91 92 94 96 96 98 100 102 104 107 109 110 110 111 112 114 113 112 110 111 112 113 113 113 112 111 110 108 107 105 103 102 101 100 99 97 95 93 91 91 91 90 88 86 84 84 86 91 95 98 98 97 95 92 90 87 85 81 78 76 73 71 68 65 61 57 55 54
92 94 96 98 98 99 101 103 104 105 106 109 110 111 112 113 113 112 111 110 110 111 112 112 112 112 111 110 109 107 105 104 103 101 100 98 96 95 94 94 94 93 93 91 89 87 87 88 91 94 97 97 95 93 90 87 83 79 76 74 72 69 67 63 59 56 52 50 47
95 97 99 100 100 101 103 104 104 105 107 110 112 112 113 112 112 112 112 112 111 109 109 109 110 110 110 109 108 107 107 106 105 103 101 100 98 97 96 96 95 94 92 90 89 88 89 90 91 93 95 94 92 89 85 82 80 77 74 72 69 66 63 60 56 53 49 47 44
97 99 100 100 100 100 100 102 103 105 107 109 111 111 110 109 109 110 111 112 111 110 109 109 109 108 108 108 108 108 108 108 107 106 104 102 100 98 96 96 95 93 90 88 88 87 88 89 90 91 92 92 90 86 83 81 80 78 75 71 68 65 61 58 53 50 47 44 42
99 100 100 100 98 96 96 98 101 104 106 107 108 108 107 106 105 106 107 108 108 109 110 110 108 107 106 106 107 107 107 107 106 105 103 102 100 99 97 96 94 93 91 89 88 87 87 87 86 87 88 88 87 84 82 81 80 78 74 71 66 61 57 53 49 46 45 43 40
101 101 100 98 96 94 93 95 99 102 104 105 106 106 105 104 104 104 105 105 105 106 107 106 105 103 103 104 104 105 106 107 106 105 103 103 102 101 100 99 96 94 92 91 89 88 88 86 84 84 84 85 85 85 84 81 79 76 71 66 61 57 53 51 47 45 44 43 39
104 103 102 99 98 97 96 96 98 100 101 102 102 102 103 103 104 105 106 106 106 105 104 103 101 100 101 102 102 103 105 106 106 105 104 104 105 105 105 103 100 98 96 94 92 91 90 87 85 82 81 81 82 83 83 81 79 74 68 62 55 51 49 50 51 51 49 43 38
106 106 105 103 102 101 100 99 99 99 99 99 99 99 100 102 102 104 105 107 108 108 107 106 104 103 103 104 104 103 103 103 103 102 102 104 107 109 109 106 103 101 98 95 94 92 90 87 83 80 78 80 82 84 84 83 80 75 69 62 55 49 48 50 56 58 54 44 37
105 106 105 104 103 102 101 99 99 99 98 98 97 98 100 100 101 102 104 107 109 108 108 108 108 106 105 105 105 104 102 100 98 97 98 100 106 108 108 105 103 101 98 96 94 92 89 84 79 75 75 78 82 84 84 81 77 72 66 60 55 51 51 56 60 59 53 44 36
104 105 105 104 102 101 100 100 99 98 97 96 96 97 97 98 99 101 105 108 108 107 106 107 108 107 105 104 102 101 99 97 97 96 95 97 102 104 104 104 105 103 99 95 94 92 88 81 75 72 73 78 81 81 78 75 70 65 60 56 53 52 54 60 62 58 51 43 34
102 103 104 103 101 100 99 99 98 96 94 94 94 95 95 95 96 99 104 107 107 106 106 107 107 106 106 104 102 100 99 98 97 96 95 96 98 101 104 105 106 104 100 95 95 92 86 80 73 69 70 73 72 71 70 67 63 57 53 51 51 52 55 60 60 57 51 45 39
101 102 102 102 100 99 98 98 96 94 92 92 93 94 96 96 96 98 102 105 105 105 106 107 107 107 108 108 106 104 102 100 98 97 95 94 94 96 97 98 98 96 95 95 96 92 85 79 71 64 62 62 61 61 62 61 57 51 47 45 47 50 54 57 57 53 48 44 47
103 103 103 102 101 100 99 97 94 93 93 93 94 95 97 98 98 100 103 105 106 106 105 105 106 108 110 111 110 108 106 104 102 99 94 91 87 85 84 83 83 82 83 85 87 86 82 73 64 58 56 56 53 54 55 56 51 45 40 38 41 46 50 53 52 46 39 35 39
105 104 103 103 102 101 100 97 95 94 94 95 95 95 96 97 100 103 105 106 106 106 106 105 106 108 111 112 111 109 108 108 106 102 97 92 86 82 80 78 77 76 74 71 70 69 66 62 55 51 50 50 48 48 51 51 45 37 32 31 32 35 39 42 41 35 28 24 25
104 103 102 101 100 100 99 97 95 95 95 94 94 95 97 99 101 102 104 104 104 104 104 104 106 108 110 111 110 109 107 105 104 103 100 95 88 82 78 76 75 73 69 64 59 54 50 48 44 44 46 46 44 43 45 43 37 29 24 24 25 27 28 27 26 22 17 14 13
Height
753 754 755 756 756 757 758 758 759 759 760 761 761 761 762 762 762 762 762 763 763 764 764 765 765 766 766 766 767 767 768 768 769 769 770 770 770 771 771 771 772 772 773 773 774 774 775 776 776 777 777 778 779 779 780 780 781 781 782 782 783 783 784 785 786 786 786 787 788
753 754 755 756 756 756 757 758 758 759 760 760 761 761 761 761 761 762 762 763 763 763 764 764 765 765 765 766 766 767 767 768 768 769 769 770 770 770 771 771 771 772 772 773 773 774 775 776 776 777 777 778 779 779 780 780 781 781 782 782 783 783 784 785 786 786 787 787 788
752 754 755 756 756 756 757 757 758 758 759 759 760 760 761 761 761 762 762 762 763 763 763 764 764 765 765 766 766 766 767 767 768 769 769 769 770 770 770 770 771 771 771 772 773 773 774 775 776 776 777 778 778 779 780 781 781 782 782 783 783 783 784 785 785 786 787 787 788
752 753 754 755 756 756 756 757 757 758 758 758 759 759 760 761 761 761 762 762 762 763 763 764 764 764 765 765 766 766 766 767 767 768 769 769 770 770 770 770 770 771 771 771 772 773 773 774 775 776 777 778 778 779 780 781 782 782 783 783 783 784 784 785 786 786 787 788 788
752 753 753 754 755 756 756 756 757 757 757 758 758 759 760 760 761 761 761 762 762 763 763 763 764 764 764 765 765 765 766 766 767 768 768 769 769 770 770 770 770 770 771 771 771 772 773 773 774 776 777 777 778 779 780 781 782 782 783 783 784 784 784 785 786 786 787 788 789
751 752 753 753 754 755 755 756 756 757 757 758 758 759 759 760 761 761 761 761 762 762 763 763 764 764 764 764 764 765 765 766 767 768 768 768 769 770 770 770 770 770 770 771 771 772 772 773 774 776 777 777 778 779 780 781 782 782 783 783 783 784 784 785 786 787 787 788 789
750 751 752 753 754 754 755 756 756 756 757 757 758 758 759 760 760 761 761 761 762 762 763 763 763 764 764 764 764 764 765 766 767 768 768 768 769 769 770 770 770 771 771 771 771 772 772 773 774 775 776 777 778 778 779 780 781 782 782 782 783 784 785 785 786 787 787 788 789
750 751 751 752 753 754 755 755 756 756 756 757 757 758 759 759 760 760 761 761 762 762 762 763 763 764 764 764 764 764 765 766 767 768 768 769 769 769 770 770 771 771 771 772 772 772 773 773 774 775 776 777 778 778 779 780 781 782 782 783 783 784 785 786 786 787 787 788 789
750 751 751 752 753 754 755 755 756 756 756 756 757 758 759 759 760 760 761 761 762 762 762 763 763 764 764 764 764 765 766 766 767 768 768 769 769 770 770 771 771 771 772 772 773 773 773 774 774 775 776 777 778 779 780 781 782 782 783 784 785 785 786 786 787 787 787 788 788
750 751 752 753 753 754 755 755 756 756 756 756 757 758 759 759 760 761 761 761 762 762 763 763 764 764 764 764 764 765 766 766 767 768 768 769 769 770 771 771 771 772 772 773 774 774 774 774 775 776 776 778 778 780 781 782 782 783 784 785 786 786 786 787 787 787 787 788 788
751 751 752 753 754 754 755 755 756 756 756 756 757 758 759 760 761 761 761 762 762 763 763 764 764 764 764 765 765 766 766 767 767 768 769 769 770 771 771 772 772 772 773 774 775 775 775 775 776 776 777 779 779 780 781 782 783 784 785 786 786 787 787 787 787 788 788 788 789
751 752 753 753 754 755 755 756 756 756 756 757 758 759 759 760 761 761 762 762 763 763 764 764 765 765 765 766 766 767 767 768 768 769 769 770 771 771 772 773 773 773 774 775 776 776 776 776 777 778 779 780 781 781 782 783 784 785 786 786 787 787 788 788 788 788 789 789 790
752 753 754 754 755 755 756 756 756 757 757 758 759 759 760 761 761 762 762 763 763 764 764 765 765 766 766 766 767 767 768 769 769 770 770 771 772 773 773 774 774 775 775 776 776 777 777 778 779 780 781 781 782 783 783 784 785 786 786 787 787 788 788 789 789 790 790 791 791
753 754 755 755 755 756 756 756 757 758 758 759 759 760 761 761 762 763 763 764 764 764 765 766 766 766 766 767 768 768 769 770 770 771 771 772 773 774 774 775 775 776 776 777 777 778 779 780 781 781 782 783 784 785 785 785 786 786 787 787 788 788 789 789 790 791 792 792 793
755 755 756 756 756 757 757 757 758 758 759 760 760 761 761 762 763 763 764 765 765 765 766 766 766 767 767 768 769 770 770 771 771 771 772 773 774 775 775 776 776 777 777 778 779 780 780 781 782 783 784 785 786 786 786 786 786 786 787 787 788 788 789 790 791 792 793 794 794
756 757 757 757 757 758 758 758 759 759 760 760 761 761 762 763 764 764 765 766 766 766 766 767 767 768 768 769 770 771 771 772 772 773 773 774 775 776 776 777 778 779 780 780 780 781 781 782 783 785 786 787 787 787 786 786 786 787 787 787 788 789 790 791 792 793 794 794 795
758 758 758 759 759 759 759 759 760 760 761 761 761 762 763 763 764 765 766 766 767 767 767 768 768 768 769 770 771 772 773 773 773 774 774 775 776 777 778 779 780 781 781 781 781 781 782 783 784 786 786 787 787 787 787 787 787 787 787 787 788 789 791 792 793 794 794 794 795
759 760 760 760 760 760 760 761 761 761 762 762 762 763 763 764 765 766 767 768 768 768 768 768 769 769 770 771 772 773 774 774 774 775 776 777 778 779 779 780 781 781 782 782 782 782 784 785 786 786 787 787 787 787 787 787 787 787 788 788 789 790 791 792 793 794 794 795 795
761 761 761 761 761 761 761 762 762 762 763 763 764 764 764 765 766 766 768 768 769 769 769 769 770 771 771 772 773 774 775 775 775 776 776 778 779 780 781 781 782 782 783 783 783 784 785 786 786 787 787 787 787 787 788 788 788 788 789 789 790 791 792 792 793 794 794 794 795
762 763 763 763 763 763 763 763 763 764 764 765 765 765 766 766 766 767 768 768 769 769 770 770 771 772 772 773 774 775 776 776 776 776 778 779 780 781 781 782 783 783 784 784 784 785 786 786 787 787 787 787 787 788 788 789 789 790 790 791 791 791 792 793 793 793 794 794 795
764 764 764 764 764 764 764 764 764 765 765 766 766 766 767 768 768 768 769 769 769 770 770 771 772 773 774 775 776 776 777 777 777 778 779 780 781 782 783 783 784 784 785 785 786 786 786 786 787 787 787 787 788 789 789 790 790 791 791 791 791 792 792 793 793 793 794 794 795
766 766 766 766 766 766 766 766 766 766 766 767 767 768 769 769 770 770 770 770 770 771 771 772 773 774 775 776 777 777 778 778 779 780 781 781 783 784 784 785 785 785 785 786 786 786 787 787 787 788 788 789 789 790 791 791 791 792 792 793 792 792 793 793 793 793 794 794 795
767 767 767 767 767 767 767 767 767 767 768 768 769 770 770 771 771 772 772 772 772 772 772 773 774 776 776 777 778 778 779 779 780 781 781 783 784 785 785 786 786 786 786 787 787 787 787 788 788 789 789 790 791 791 792 792 793 793 793 793 793 793 793 794 794 794 794 795 796
769 769 769 769 769 769 768 768 768 769 769 770 771 771 772 773 773 773 773 773 773 774 774 775 776 777 778 779 779 779 780 780 781 782 783 784 785 786 786 786 787 787 788 788 788 788 788 789 789 790 791 791 792 792 793 793 794 794 794 794 794 794 794 795 795 795 796 796 797
771 771 771 771 770 770 770 770 771 771 771 772 773 773 774 774 774 774 775 775 775 776 776 777 777 778 779 780 781 781 781 782 782 784 785 786 787 787 787 788 788 788 789 789 789 789 789 789 790 791 792 792 793 794 794 794 794 794 794 794 795 795 796 796 796 796 797 797 797
772 772 772 772 772 772 772 773 773 773 774 774 775 775 775 775 776 776 776 776 776 777 778 779 779 780 781 781 782 783 783 784 785 786 786 787 788 788 788 789 789 790 790 791 790 790 790 791 791 792 793 794 794 794 795 794 794 794 795 795 795 796 796 797 797 798 798 798 797
774 774 774 774 774 774 775 775 775 776 776 776 777 777 776 776 777 777 777 778 778 779 780 781 781 782 783 783 784 784 785 786 786 787 788 789 789 789 789 790 791 791 792 792 791 791 791 792 792 793 794 794 795 795 795 795 795 795 795 796 796 797 797 798 798 798 798 798 798
776 776 776 776 776 776 777 777 777 777 778 778 778 778 777 778 778 778 779 780 781 781 781 782 783 783 784 785 785 786 786 787 788 788 789 789 790 790 791 791 792 793 793 793 793 793 793 793 793 794 795 795 796 796 796 796 796 796 796 797 797 798 798 798 798 799 798 798 798
777 777 777 778 778 778 779 779 779 779 779 780 780 780 779 779 779 780 781 781 782 783 783 783 784 785 785 786 786 787 787 788 789 790 790 791 791 792 792 793 794 794 794 794 794 794 794 794 795 795 796 796 796 796 796 796 797 797 797 798 798 798 799 799 799 799 799 799 799
779 779 780 780 780 780 780 780 780 780 781 781 781 781 781 781 781 781 782 783 783 784 784 785 785 786 786 787 787 788 788 789 790 791 791 792 792 793 794 794 795 795 795 795 795 795 795 795 796 796 796 796 796 797 797 797 797 798 798 799 799 799 799 799 799 799 799 799 799
781 781 781 782 782 782 782 781 781 781 782 782 782 782 782 782 782 783 783 784 785 785 785 786 786 787 787 788 788 789 789 790 791 792 792 793 793 794 795 795 796 796 796 796 796 796 796 796 796 796 797 797 797 797 798 798 798 798 799 799 799 799 799 799 799 799 799 799 799
783 783 783 784 784 784 784 783 783 783 783 783 783 783 783 783 784 784 785 786 786 786 787 787 787 788 788 789 789 790 791 791 792 792 793 794 795 795 796 796 797 797 797 798 797 797 797 797 797 797 797 798 798 798 799 799 799 799 800 800 800 800 800 800 800 799 799 799 799
785 785 785 785 786 786 786 785 785 785 785 785 785 785 785 785 785 786 786 787 787 788 788 788 789 789 790 791 791 791 792 793 793 794 795 795 796 796 797 797 798 798 799 799 799 799 798 798 798 798 798 799 799 799 800 800 800 800 800 800 800 800 800 800 800 800 800 799 799
786 787 787 787 787 787 787 787 787 786 786 786 786 786 786 786 787 787 788 788 788 788 789 789 790 790 791 792 793 793 794 794 795 796 796 796 797 797 797 798 798 799 799 800 799 799 799 799 799 799 799 800 800 800 800 800 801 801 801 801 801 801 800 800 800 800 800 800 800
788 788 788 789 789 789 789 788 788 788 787 787 787 787 788 788 788 789 789 790 790 790 790 790 791 791 792 793 794 794 795 795 796 796 797 797 797 797 798 798 799 800 800 800 800 800 800 800 800 800 800 800 801 801 801 801 801 801 801 801 801 801 800 800 800 800 800 800 800
789 789 790 790 790 790 790 790 789 789 789 789 789 789 789 789 790 790 790 791 791 791 791 791 792 792 793 794 795 795 796 796 796 797 797 797 798 798 799 799 800 800 801 801 801 801 801 801 801 801 801 801 801 801 801 801 801 801 801 801 801 801 800 800 800 800 800 800 800
790 791 791 791 791 791 791 791 790 790 790 790 790 790 790 790 790 791 791 791 791 792 792 793 793 793 794 794 795 796 796 797 797 798 798 798 799 799 799 800 801 801 801 801 801 801 801 801 801 801 801 801 801 801 801 801 802 802 801 801 801 801 800 800 800 800 800 799 799
791 791 791 791 791 791 791 791 791 791 790 790 790 791 791 791 791 791 792 792 792 793 793 794 794 795 795 795 796 796 797 798 798 799 799 799 800 800 800 801 801 801 801 801 801 802 802 802 802 802 802 802 802 802 802 802 802 802 802 801 801 801 801 800 800 800 799 799 799
792 792 792 792 792 792 792 792 792 791 791 791 791 791 791 792 792 792 793 793 793 794 794 795 795 796 796 796 797 797 798 798 799 799 800 800 801 801 801 801 802 802 802 803 802 802 802 802 802 802 802 802 802 802 802 802 802 802 802 801 801 801 801 800 800 800 799 799 798
793 793 793 793 793 793 793 793 793 793 793 793 793 793 793 793 793 793 794 794 795 795 796 796 796 797 797 798 798 798 799 799 800 800 801 801 801 801 802 802 803 803 803 804 804 804 803 803 803 802 802 802 802 802 802 802 802 802 802 801 801 801 801 800 800 800 799 799 798
794 794 794 794 794 794 794 794 794 794 794 794 794 794 794 794 794 795 795 795 796 796 797 797 798 798 799 799 799 800 800 800 801 801 801 802 802 802 803 803 804 804 804 805 805 805 804 804 803 803 803 803 803 803 802 802 802 802 802 801 801 801 800 800 800 799 799 799 798